Regional Weather Roundup
Issued by NWS

Home | Current Version | Previous Version | Text Only | Print | Product List | Glossary On
Versions: 1 2 3 4 5 6 7 8 9 10 11 12 13 14 15 16 17 18 19 20 21 22 23 24 25 26 27 28 29 30 31 32 33 34 35 36 37 38 39 40 41 42 43 44 45 46 47 48 49 50
000
ASUS45 KBOI 311910
RWRID

IDAHO REGIONAL WEATHER ROUNDUP
NATIONAL WEATHER SERVICE BOISE ID
100 PM MDT MON AUG 31 2015

NOTE: "FAIR" INDICATES FEW OR NO CLOUDS BELOW 12000 FEET
WITH NO SIGNIFICANT WEATHER AND/OR OBSTRUCTIONS TO VISIBILITY

IDZ012-014-312000-
SOUTHWEST IDAHO


CITY           SKY/WX    TMP DP  RH WIND       PRES   REMARKS
BOISE          SUNNY     73  43  33 N5        30.06F
CALDWELL       SUNNY     72  43  35 N6        30.07F
MOUNTAIN HOME  SUNNY     74  38  27 CALM      30.06F
$$

IDZ016-017-312000-
SOUTHCENTRAL IDAHO


CITY           SKY/WX    TMP DP  RH WIND       PRES   REMARKS
BURLEY         SUNNY     71  41  33 VRB6      30.09F
JEROME         SUNNY     70  42  36 W6        30.11F
TWIN FALLS     SUNNY     73  40  30 VRB6      30.10F
$$

IDZ019>023-312000-
SOUTHEAST IDAHO


CITY           SKY/WX    TMP DP  RH WIND       PRES   REMARKS
IDAHO FALLS    SUNNY     74  38  27 SW13      30.12F
POCATELLO      SUNNY     75  37  25 W10       30.12F
REXBURG        SUNNY     71  37  28 SW17G23   30.12F
$$

IDZ006-010-011-018-031-032-312000-
CENTRAL IDAHO MOUNTAINS


CITY           SKY/WX    TMP DP  RH WIND       PRES   REMARKS
MCCALL         SUNNY     64  37  36 S8G17     30.11F
HAILEY         SUNNY     70  39  32 S12       30.14F
STANLEY          N/A     66  32  28 MISG      30.17F
SALMON         SUNNY     66  43  42 NW7       30.03F
CHALLIS        SUNNY     73  33  23 SE10      30.06F
$$

IDZ002-004-006-007-026-312000-
NORTHERN IDAHO


CITY           SKY/WX    TMP DP  RH WIND       PRES   REMARKS
LEWISTON       MOSUNNY   72  42  34 NW8       30.01F
LOWELL           N/A     65  52  62 N5        30.04F
COEUR D`ALENE  CLOUDY    64  45  48 S16       30.03F
MULLAN PASS    PTSUNNY   49  37  63 VRB7      30.11S
$$



USA.gov is the U.S. government's official web portal to all federal, state and local government web resources and services.